TimeCDT,TemperatureF,Dew PointF,Humidity,Sea Level PressureIn,VisibilityMPH,Wind Direction,Wind SpeedMPH,Gust SpeedMPH,PrecipitationIn,Events,Conditions,WindDirDegrees,DateUTC
12:15 AM,69.8,64.4,83,30.01,10.0,SE,4.6,-,N/A,,Clear,140,2013-10-02 05:15:00
12:35 AM,68.0,64.4,88,30.01,10.0,SE,4.6,-,N/A,,Clear,140,2013-10-02 05:35:00
12:55 AM,68.0,64.4,88,30.01,10.0,SE,4.6,-,N/A,,Clear,140,2013-10-02 05:55:00
1:15 AM,68.0,64.4,88,30.01,10.0,SE,3.5,-,N/A,,Clear,140,2013-10-02 06:15:00
1:35 AM,68.0,64.4,88,30.01,10.0,SE,3.5,-,N/A,,Clear,130,2013-10-02 06:35:00
1:55 AM,68.0,64.4,88,30.01,9.0,SE,3.5,-,N/A,,Clear,140,2013-10-02 06:55:00
2:15 AM,66.2,64.4,94,30.01,8.0,Calm,Calm,-,N/A,,Clear,0,2013-10-02 07:15:00
2:35 AM,66.2,64.4,94,30.00,7.0,Calm,Calm,-,N/A,,Clear,0,2013-10-02 07:35:00
2:55 AM,66.2,62.6,88,30.00,5.0,SE,3.5,-,N/A,,Clear,130,2013-10-02 07:55:00
3:15 AM,66.2,62.6,88,30.00,5.0,SE,3.5,-,N/A,,Clear,140,2013-10-02 08:15:00
3:35 AM,66.2,62.6,88,30.00,5.0,SE,4.6,-,N/A,,Clear,140,2013-10-02 08:35:00
3:55 AM,66.2,62.6,88,30.00,7.0,SE,5.8,-,N/A,,Clear,130,2013-10-02 08:55:00
4:15 AM,66.2,62.6,88,30.00,6.0,Calm,Calm,-,N/A,,Clear,0,2013-10-02 09:15:00
4:35 AM,66.2,62.6,88,30.00,5.0,SE,3.5,-,N/A,,Clear,130,2013-10-02 09:35:00
4:55 AM,66.2,64.4,94,30.01,5.0,Calm,Calm,-,N/A,,Clear,0,2013-10-02 09:55:00
5:15 AM,66.2,62.6,88,30.01,5.0,Calm,Calm,-,N/A,,Scattered Clouds,0,2013-10-02 10:15:00
5:35 AM,66.2,62.6,88,30.02,5.0,SE,3.5,-,N/A,,Overcast,140,2013-10-02 10:35:00
5:55 AM,66.2,64.4,94,30.01,8.0,SE,4.6,-,N/A,,Scattered Clouds,130,2013-10-02 10:55:00
6:15 AM,66.2,62.6,88,30.01,7.0,SE,5.8,-,N/A,,Clear,130,2013-10-02 11:15:00
6:35 AM,66.2,62.6,88,30.02,8.0,SE,4.6,-,N/A,,Clear,140,2013-10-02 11:35:00
6:55 AM,66.2,64.4,94,30.02,7.0,Calm,Calm,-,N/A,,Clear,0,2013-10-02 11:55:00
7:15 AM,66.2,62.6,88,30.02,5.0,SSE,3.5,-,N/A,,Clear,150,2013-10-02 12:15:00
7:35 AM,66.2,62.6,88,30.03,5.0,Calm,Calm,-,N/A,,Partly Cloudy,0,2013-10-02 12:35:00
7:55 AM,66.2,64.4,94,30.04,5.0,Calm,Calm,-,N/A,,Scattered Clouds,0,2013-10-02 12:55:00
8:15 AM,68.0,64.4,88,30.04,8.0,SE,4.6,-,N/A,,Scattered Clouds,140,2013-10-02 13:15:00
8:35 AM,69.8,66.2,88,30.04,10.0,SE,4.6,-,N/A,,Partly Cloudy,130,2013-10-02 13:35:00
8:55 AM,69.8,66.2,88,30.04,10.0,SE,3.5,-,N/A,,Scattered Clouds,140,2013-10-02 13:55:00
9:15 AM,69.8,66.2,88,30.04,10.0,SSE,3.5,-,N/A,,Mostly Cloudy,150,2013-10-02 14:15:00
9:35 AM,73.4,68.0,83,30.05,10.0,SSE,6.9,-,N/A,,Scattered Clouds,150,2013-10-02 14:35:00
9:55 AM,73.4,68.0,83,30.05,10.0,South,8.1,-,N/A,,Partly Cloudy,170,2013-10-02 14:55:00
10:15 AM,73.4,66.2,78,30.05,10.0,South,10.4,-,N/A,,Mostly Cloudy,170,2013-10-02 15:15:00
10:35 AM,73.4,66.2,78,30.05,10.0,South,8.1,-,N/A,,Mostly Cloudy,170,2013-10-02 15:35:00
10:55 AM,75.2,66.2,73,30.05,10.0,South,10.4,-,N/A,,Mostly Cloudy,190,2013-10-02 15:55:00
11:15 AM,77.0,66.2,69,30.05,10.0,South,9.2,-,N/A,,Scattered Clouds,180,2013-10-02 16:15:00
11:35 AM,78.8,66.2,65,30.05,10.0,South,9.2,-,N/A,,Mostly Cloudy,170,2013-10-02 16:35:00
11:55 AM,78.8,66.2,65,30.05,10.0,SW,13.8,-,N/A,,Mostly Cloudy,220,2013-10-02 16:55:00
12:15 PM,75.2,66.2,73,30.05,8.0,SW,11.5,-,0.03,,Mostly Cloudy,220,2013-10-02 17:15:00
12:35 PM,77.0,68.0,74,30.04,10.0,SSW,8.1,-,0.03,,Mostly Cloudy,210,2013-10-02 17:35:00
12:55 PM,75.2,68.0,78,30.03,10.0,SW,8.1,-,0.03,,Mostly Cloudy,230,2013-10-02 17:55:00
1:15 PM,75.2,66.2,73,30.02,10.0,SW,9.2,-,N/A,,Overcast,220,2013-10-02 18:15:00
1:35 PM,73.4,66.2,78,30.01,10.0,South,5.8,-,0.02,,Mostly Cloudy,190,2013-10-02 18:35:00
1:55 PM,77.0,68.0,74,30.00,10.0,SSW,9.2,-,0.02,,Partly Cloudy,200,2013-10-02 18:55:00
2:15 PM,78.8,69.8,74,29.98,10.0,South,9.2,-,N/A,,Clear,170,2013-10-02 19:15:00
2:35 PM,80.6,68.0,65,29.98,10.0,South,9.2,-,N/A,,Scattered Clouds,170,2013-10-02 19:35:00
2:55 PM,80.6,66.2,61,29.97,10.0,South,6.9,-,N/A,,Mostly Cloudy,190,2013-10-02 19:55:00
3:15 PM,80.6,66.2,61,29.97,10.0,SSW,8.1,-,N/A,,Mostly Cloudy,200,2013-10-02 20:15:00
3:35 PM,80.6,66.2,61,29.96,10.0,SSW,10.4,-,N/A,,Partly Cloudy,200,2013-10-02 20:35:00
3:55 PM,80.6,66.2,61,29.95,10.0,South,6.9,-,N/A,,Partly Cloudy,190,2013-10-02 20:55:00
4:15 PM,80.6,66.2,61,29.95,10.0,South,10.4,-,N/A,,Scattered Clouds,170,2013-10-02 21:15:00
4:35 PM,80.6,66.2,61,29.94,10.0,South,9.2,-,N/A,,Partly Cloudy,190,2013-10-02 21:35:00
4:55 PM,80.6,66.2,61,29.94,10.0,South,8.1,-,N/A,,Partly Cloudy,190,2013-10-02 21:55:00
5:15 PM,80.6,66.2,61,29.94,10.0,South,6.9,-,N/A,,Partly Cloudy,190,2013-10-02 22:15:00
5:35 PM,80.6,64.4,58,29.94,10.0,South,8.1,-,N/A,,Partly Cloudy,190,2013-10-02 22:35:00
5:55 PM,80.6,64.4,58,29.94,10.0,South,8.1,-,N/A,,Clear,180,2013-10-02 22:55:00
6:15 PM,78.8,64.4,61,29.94,10.0,South,6.9,-,N/A,,Clear,180,2013-10-02 23:15:00
6:35 PM,78.8,64.4,61,29.94,10.0,South,5.8,-,N/A,,Clear,170,2013-10-02 23:35:00
6:55 PM,75.2,64.4,69,29.95,10.0,South,6.9,-,N/A,,Clear,170,2013-10-02 23:55:00
7:15 PM,75.2,64.4,69,29.95,10.0,SSE,6.9,-,N/A,,Clear,150,2013-10-03 00:15:00
7:35 PM,75.2,64.4,69,29.95,10.0,SSE,8.1,-,N/A,,Clear,150,2013-10-03 00:35:00
7:55 PM,73.4,64.4,73,29.95,10.0,SSE,6.9,-,N/A,,Clear,150,2013-10-03 00:55:00
8:15 PM,73.4,64.4,73,29.96,10.0,SSE,6.9,-,N/A,,Clear,150,2013-10-03 01:15:00
8:35 PM,71.6,64.4,78,29.96,10.0,SE,6.9,-,N/A,,Clear,140,2013-10-03 01:35:00
8:55 PM,71.6,64.4,78,29.96,10.0,SE,5.8,-,N/A,,Clear,140,2013-10-03 01:55:00
9:15 PM,71.6,64.4,78,29.96,10.0,SE,5.8,-,N/A,,Clear,140,2013-10-03 02:15:00
9:35 PM,71.6,64.4,78,29.97,10.0,SSE,5.8,-,N/A,,Clear,150,2013-10-03 02:35:00
9:55 PM,69.8,64.4,83,29.97,10.0,SE,4.6,-,N/A,,Clear,140,2013-10-03 02:55:00
10:15 PM,69.8,64.4,83,29.97,10.0,SE,4.6,-,N/A,,Clear,140,2013-10-03 03:15:00
10:35 PM,69.8,64.4,83,29.97,10.0,SSE,5.8,-,N/A,,Clear,150,2013-10-03 03:35:00
10:55 PM,69.8,64.4,83,29.97,10.0,SSE,6.9,-,N/A,,Clear,150,2013-10-03 03:55:00
11:15 PM,69.8,64.4,83,29.97,10.0,SSE,5.8,-,N/A,,Clear,150,2013-10-03 04:15:00
11:35 PM,69.8,64.4,83,29.97,10.0,SSE,5.8,-,N/A,,Clear,150,2013-10-03 04:35:00
11:55 PM,69.8,64.4,83,29.97,10.0,SSE,4.6,-,N/A,,Clear,150,2013-10-03 04:55:00